User: anonymous   Login
Location: Unspecified
(0.0000°N, 0.0000°E)
Time: 16:39:32
(UTC+01:00)
Language:

Delta 2 Rocket - Orbit

View from above orbital plane
View from above orbital plane
View from above satellite
View from above satellite

Ground track
Ground track

The orbit data is extracted from the following two-line orbital elements,

1 20453U 90008B   16338.18423168  .00003002  00000-0  17454-3 0  9994
2 20453  35.6271 301.3449 0291874 338.5615  20.3085 14.82526023419090
Epoch (UTC): 03 December 2016 04:25:17
Eccentricity: 0.0291874
inclination: 35.6271°
perigee height: 417 km
apogee height: 825 km
right ascension of ascending node: 301.3449°
argument of perigee: 338.5615°
revolutions per day: 14.82526023
mean anomaly at epoch: 20.3085°
orbit number at epoch: 41909

The dashed part of the orbit path shows where the satellite is in the earth's shadow,  

DLR